Simultaneous Nadir Overpasses (SNOs) Predictions

Prediction of SNOs between GOES-17 and NOAA-20 Satellite Orbit:

Table of predicted SNOs for the next 14.0 days since TLE Epoch: 11/4/2023
Index Date Time (GOES-17) GOES-17 Lat,Lon NOAA-20 Lat,Lon Distance(km) Time Diff (sec)
1 11/04/2023 08:26:40 -0.00,-104.68 0.08,-105.02 39.62 80
2 11/05/2023 08:05:17 -0.00,-104.67 -0.94,-100.50 475.87 80
3 11/06/2023 20:27:15 0.00,-104.65 -0.23,-105.81 131.88 80
4 11/07/2023 20:11:10 0.00,-104.65 0.74,-101.28 384.19 80
5 11/09/2023 08:33:00 -0.00,-104.67 0.42,-106.56 214.40 80
6 11/10/2023 08:11:36 -0.00,-104.67 -0.61,-102.03 301.43 80
7 11/11/2023 20:33:33 -0.00,-104.65 -0.61,-107.34 306.57 80
8 11/12/2023 20:17:30 -0.00,-104.65 0.42,-102.81 209.46 80
9 11/14/2023 08:39:18 0.01,-104.67 0.79,-108.08 388.97 80
10 11/15/2023 08:17:55 0.01,-104.67 -0.25,-103.56 126.60 80
11 11/16/2023 20:39:52 -0.02,-104.63 -0.95,-108.86 482.43 80
12 11/17/2023 20:23:48 -0.02,-104.62 0.03,-104.33 33.13 80
